Location: Vancouver
(49.2500°N, 123.1330°W)
Time: 01:27:36
(UTC-07:00)

Daily predictions for brighter satellites

Satellite Brightness Start Highest point End
(mag) Time Altitude Azimuth Time Altitude Azimuth Time Altitude Azimuth
H-2A R/B 2.9 00:04:55 43° NE 00:04:55 43° NE 00:08:49 10° N
Cosmos 2151 Rocket 4.0 00:01:44 10° N 00:05:43 57° NE 00:05:43 57° NE
Cosmos 1703 Rocket 4.2 00:07:15 49° WNW 00:07:16 49° WNW 00:11:30 10° N
CZ-4C R/B 3.3 00:03:39 10° WSW 00:08:54 46° NW 00:15:03 10° NE
Cosmos 1459 Rocket 3.8 00:09:21 65° S 00:10:19 86° E 00:16:28 10° N
SL-19 R/B 4.5 00:04:20 10° NNE 00:10:29 66° ESE 00:11:11 61° SE
CZ-4C R/B 4.3 00:15:12 42° NNE 00:15:12 42° NNE 00:18:12 10° N
COBE Rocket 4.4 00:10:13 10° NNE 00:14:11 47° ENE 00:14:11 47° ENE
Meteor 2-12 Rocket 4.2 00:15:18 69° SSE 00:15:57 77° E 00:22:02 10° NNE
Cosmos 2221 Rocket 3.9 00:17:59 65° NW 00:17:59 65° NW 00:22:16 10° N
Tsikada Rocket 4.0 00:15:14 10° N 00:21:26 66° ENE 00:22:20 59° ESE
CZ-4 R/B 3.9 00:19:30 10° NNE 00:24:09 80° NE 00:24:09 80° NE
Cosmos 1354 Rocket 3.9 00:22:46 10° NNW 00:27:57 87° NW 00:27:57 87° NW
ALOS 2 3.0 00:38:01 60° NNW 00:38:01 60° NNW 00:41:39 10° NNW
Terra 4.1 00:36:44 14° W 00:37:25 14° W 00:39:58 10° NW
Cosmos 2346 Rocket 4.5 00:31:12 10° N 00:37:27 69° ENE 00:38:15 62° ESE
Mayak -0.3 00:35:37 10° NNE 00:38:38 43° NE 00:38:38 43° NE
Gblst 52 Del rocket 4.2 00:36:49 10° W 00:42:19 77° NNW 00:48:08 10° ENE
Cosmos 1816 Rocket 4.3 00:36:24 10° N 00:42:39 84° E 00:43:22 72° SSE
Cosmos 1980 Rocket 4.4 00:40:09 10° N 00:44:07 19° NE 00:48:06 10° E
Cosmos 1302 Rocket 4.3 00:43:50 57° W 00:44:16 59° WNW 00:49:27 10° NNE
Cosmos 2369 Rocket 4.4 00:42:54 10° WNW 00:45:21 13° W 00:46:00 13° WSW
Cosmos 1697 Rocket 4.3 00:42:02 10° NNW 00:46:55 28° NE 00:49:53 18° E
CZ-2C R/B 3.6 00:41:55 10° N 00:46:58 43° WNW 00:48:16 36° W
Lacrosse 4 Rocket 3.3 00:43:50 10° NNW 00:47:28 25° NE 00:48:28 23° ENE
Cosmos 1975 4.1 00:47:04 10° N 00:50:03 38° NE 00:50:03 38° NE
Cosmos 1300 Rocket 4.4 00:53:17 10° NNW 00:56:46 48° NW 00:56:46 48° NW
COSMOS 2406 3.4 00:58:22 58° E 00:58:22 58° E 01:03:36 10° NE
Cosmos 1802 Rocket 4.4 00:57:53 45° WSW 00:59:07 52° WNW 01:05:13 10° N
Okean 1 Rocket 3.6 00:54:54 10° N 00:58:32 57° N 00:58:32 57° N
Cosmos 1864 Rocket 4.4 00:58:50 69° SW 00:59:36 80° W 01:05:54 10° N
Cosmos 968 Rocket 3.5 00:57:22 10° NNW 01:02:18 78° NW 01:02:18 78° NW
USA 267 3.4 00:56:12 10° NE 01:02:44 72° NNW 01:08:02 16° WSW
ATLAS 5 CENTAUR R/B 4.4 01:01:05 10° W 01:03:27 14° WSW 01:03:27 14° WSW
Cosmos 2082 Rocket 4.1 01:05:44 16° E 01:05:44 16° E 01:08:42 10° ENE
Cosmos 2233 Rocket 3.8 01:05:12 72° SE 01:05:40 77° E 01:11:49 10° NNE
Okean 3 4.2 01:08:49 51° N 01:08:49 51° N 01:12:08 10° N
ADEOS Rocket 3.0 01:06:28 10° NNE 01:13:22 78° ESE 01:14:08 68° SSE
Cosmos 1666 4.3 01:09:42 10° N 01:11:51 32° N 01:11:51 32° N
Meteor 1-18 Rocket 4.1 01:18:14 83° ESE 01:18:19 84° E 01:24:04 10° NNE
Cosmos 1867 4.0 01:13:16 10° NW 01:18:42 60° NE 01:19:41 51° E
Cosmos 1455 Rocket 4.3 01:14:50 10° N 01:18:29 35° ENE 01:18:29 35° ENE
Cosmos 1975 Rocket 4.0 01:20:22 41° ENE 01:20:22 41° ENE 01:23:44 10° NNE
SL-16 R/B 4.5 01:25:42 10° ESE 01:30:28 23° NE 01:35:13 10° N
Meteor 1-19 Rocket 4.5 01:31:19 55° ESE 01:31:35 56° E 01:37:18 10° NNE
Cosmos 1725 Rocket 4.5 01:31:08 43° WSW 01:32:12 48° WNW 01:38:10 10° N
SeaSat 1 3.2 01:33:35 41° WNW 01:33:35 41° WNW 01:37:11 10° NW
Cosmos 1833 Rocket 3.9 01:34:02 29° E 01:34:02 29° E 01:38:40 10° NE
Meteor 1-12 Rocket 4.1 01:29:09 10° NNW 01:34:50 79° W 01:34:59 78° WSW
USA 32 4.1 01:31:04 10° N 01:36:02 65° WNW 01:36:02 65° WNW
Cosmos 1743 4.2 01:33:08 10° NNW 01:35:25 34° NNW 01:35:25 34° NNW
USA 234 4.2 01:40:25 31° WSW 01:40:25 31° WSW 01:44:51 10° WNW
H-2A R/B 4.0 01:41:39 21° WNW 01:41:39 21° WNW 01:43:59 10° NW
Cosmos 1544 Rocket 4.2 01:36:30 10° N 01:40:05 51° NE 01:40:05 51° NE
Geosat 4.2 01:36:04 10° NE 01:40:39 61° E 01:40:39 61° E
Cosmos 2369 3.5 01:37:22 10° NNW 01:43:04 87° ENE 01:43:22 81° SE
CZ-4B R/B 4.3 01:40:42 10° N 01:45:03 37° WNW 01:45:13 36° WNW
Cosmos 1072 Rocket 4.4 01:53:35 66° S 01:54:34 84° E 02:01:02 10° N
Meteor 2-9 Rocket 3.9 01:50:55 10° NNW 01:56:27 90° N 01:56:38 85° S
Cosmos 1607 4.2 01:57:01 54° SE 01:57:32 55° ESE 02:03:52 10° NE
CZ-4B R/B 3.2 01:59:08 34° NNE 01:59:08 34° NNE 02:01:31 10° N
PSLV R/B 4.1 01:57:21 10° NNE 02:00:55 53° NE 02:00:55 53° NE
CZ-2D R/B 4.2 01:58:33 10° NE 02:01:47 16° E 02:03:40 14° ESE
MOS 1 Rocket 3.5 02:01:59 10° NNE 02:06:38 63° E 02:06:38 63° E
Meteor 1-13 Rocket 4.1 02:06:24 75° S 02:06:54 85° E 02:12:42 10° NNE
H-2A R/B 4.5 02:10:58 10° NE 02:14:14 20° E 02:14:40 20° E
Meteor 2-20 Rocket 4.4 02:08:47 10° NNW 02:14:47 62° W 02:15:22 59° WSW
Mayak 1.0 02:12:21 10° NNW 02:14:59 16° WNW 02:15:15 16° WNW
ATLAS CENTAUR R/B 4.3 02:22:46 10° NNW 02:25:44 18° NNE 02:28:50 10° ENE
Lacrosse 4 Rocket 2.7 02:21:55 10° NW 02:24:28 33° WNW 02:24:28 33° WNW
Landsat 5 3.8 02:28:35 65° WNW 02:28:35 65° WNW 02:32:39 10° NNW
Cosmos 1980 Rocket 2.2 02:23:22 10° NNW 02:28:59 77° ENE 02:30:45 45° SE
Resurs 1-4 Rocket 3.6 02:25:06 10° NE 02:29:32 27° E 02:31:20 22° SE
Gbstr 26 Del rocket 4.3 02:26:12 31° WSW 02:30:31 87° NNW 02:37:39 10° ENE
Lacrosse 5 rocket 1.8 02:31:27 56° ENE 02:31:27 56° ENE 02:34:46 10° ENE
Cosmos 2034 Rocket 3.9 02:29:49 58° SSW 02:31:06 79° W 02:37:21 10° N
Cosmos 1697 Rocket 2.6 02:25:42 10° NNW 02:31:19 65° WSW 02:31:33 65° SW
Meteor 2-4 Rocket 3.5 02:30:51 67° WSW 02:31:22 72° WNW 02:36:44 10° N
Cosmos 2278 4.1 02:28:30 10° NW 02:33:25 45° W 02:33:25 45° W
Gblst 52 Del rocket 4.3 02:28:45 10° WNW 02:34:21 77° NNE 02:40:31 10° E
Cosmos 1092 Rocket 4.0 02:28:13 10° N 02:34:30 81° E 02:36:31 46° SSE
Cosmos 909 Rocket 4.2 02:28:48 10° NW 02:34:49 49° WSW 02:34:55 49° WSW
Meteor 1-23 Rocket 4.2 02:38:15 60° S 02:39:21 84° E 02:45:03 10° NNE
Cosmos 44 3.9 02:36:14 10° NW 02:41:22 60° NE 02:46:40 10° SE
Cosmos 1656 4.5 02:39:10 10° NW 02:43:41 35° W 02:43:41 35° W
USA 267 4.2 02:39:06 10° ENE 02:45:18 47° N 02:51:29 10° WNW
ARIANE 5 R/B 4.3 02:42:05 10° NE 02:46:18 24° E 02:48:58 17° SE
SL-16 R/B 3.3 02:42:00 10° NNW 02:47:25 43° NE 02:52:47 10° ESE
Cosmos 2082 Rocket 2.1 02:47:34 60° SSW 02:48:39 89° NW 02:54:21 10° NNE
SL-08 R/B 3.6 02:47:26 42° SE 02:48:53 64° ENE 02:53:42 10° N
Cosmos 1606 Rocket 4.5 02:46:55 10° N 02:51:04 43° ENE 02:52:28 32° ESE
SL-27 R/B 4.2 02:53:18 24° NW 02:53:18 24° NW 02:55:24 10° N
Cosmos 1356 Rocket 4.4 02:54:38 34° ESE 02:55:12 36° E 02:58:59 10° NNE
SJ 16-02 4.1 02:53:06 10° N 02:56:14 19° NE 02:59:23 10° E
NPP 3.8 02:53:47 10° NNE 02:59:10 65° ESE 03:00:47 44° SSE
Cosmos 1025 Rocket 2.9 02:59:50 71° SE 03:00:08 76° E 03:04:26 10° NNE
Okean 2 3.2 03:01:18 88° W 03:01:18 88° W 03:05:27 10° N
Cosmos 1627 Rocket 4.4 02:55:08 10° N 03:01:31 88° E 03:04:14 37° S
Cosmos 2322 Rocket 3.0 02:55:59 10° NNW 03:01:31 50° NE 03:06:58 10° SE
AQUA 4.1 03:02:03 10° NNE 03:06:47 60° E 03:08:03 44° SSE
Nadezhda 4 Rocket 4.4 03:03:05 10° NNW 03:08:49 42° W 03:09:58 38° WSW
SL-16 R/B 2.5 03:10:17 32° S 03:13:26 81° WSW 03:19:45 10° NNW
Cosmos 2298 Rocket 4.2 03:10:18 10° NNW 03:15:39 72° ENE 03:20:00 15° SSE
Cosmos 1833 Rocket 3.1 03:15:43 38° WSW 03:17:31 54° NW 03:23:05 10° NNE
Cosmos 371 Rocket 4.0 03:16:34 36° W 03:17:36 41° WNW 03:22:11 10° NNE
IRS-1D 4.0 03:14:04 10° NNE 03:19:11 56° E 03:21:34 31° SSE
Meteor 1-22 Rocket 4.4 03:15:00 10° N 03:20:59 77° ENE 03:24:46 22° SSE
Cosmos 1340 Rocket 3.7 03:22:36 35° WNW 03:22:36 35° WNW 03:26:13 10° N
Cosmos 44 Rocket 3.4 03:18:42 10° NW 03:23:50 84° NE 03:29:03 10° SE
ATLAS 3B R/B 3.6 03:21:13 23° S 03:24:57 40° ESE 03:31:18 10° NE
Cosmos 1805 4.1 03:23:01 10° N 03:26:44 47° ENE 03:28:40 24° SE
Cosmos 1634 Rocket 4.0 03:26:00 38° SSW 03:28:31 71° WNW 03:34:49 10° N
CZ-4B R/B 4.0 03:32:34 12° WNW 03:32:34 12° WNW 03:33:02 10° NW
Cosmos 2279 Rocket 4.0 03:34:28 29° S 03:37:55 87° E 03:44:14 10° N
Cosmos 1766 3.0 03:34:22 10° N 03:38:11 86° W 03:39:05 51° S
Cosmos 1763 Rocket 3.8 03:36:08 30° S 03:38:39 62° ESE 03:43:55 10° NNE
Cosmos 2026 Rocket 4.2 03:35:13 10° NNW 03:41:25 54° W 03:44:19 31° SSW
CZ-2D R/B 2.0 03:37:03 10° NNE 03:42:27 83° WNW 03:44:53 33° SSW
Aureole 2 Rocket 4.3 03:40:15 10° N 03:43:48 34° ENE 03:47:07 10° SE
ADEOS II 3.8 03:39:24 10° NE 03:43:51 28° E 03:48:16 10° SSE
Cosmos 304 Rocket 4.0 03:42:42 39° WSW 03:44:16 58° WNW 03:49:04 10° NNE
COSMOS 2487 3.1 03:45:06 39° WNW 03:45:23 40° WNW 03:48:45 10° N
Cosmos 1953 3.9 03:43:27 10° N 03:47:07 34° ENE 03:50:44 10° SE
Iridium 4 Rocket 3.8 03:47:46 34° WSW 03:48:38 38° W 03:53:02 10° N
H-2A R/B 3.0 03:45:49 10° N 03:49:58 49° WNW 03:51:16 37° WSW
Cosmos 1544 3.8 03:48:22 10° NNW 03:51:40 36° W 03:51:40 36° W
Cosmos 1733 4.4 03:48:31 10° N 03:52:09 41° ENE 03:55:45 10° SSE
Cosmos 1898 Rocket 4.0 03:48:17 10° NW 03:52:57 36° WSW 03:53:58 33° SW
CBERS-1 4.4 03:50:37 10° N 03:55:33 49° WNW 03:57:43 30° SW
BREEZE-M R/B 4.3 03:49:49 10° W 03:55:44 80° N 04:03:22 10° E
Cosmos 1726 Rocket 3.8 03:53:43 10° NNW 03:57:53 48° W 03:59:11 35° SW
Cosmos 1937 Rocket 3.8 03:53:54 10° NW 03:58:44 43° WSW 04:00:50 28° SSW
IRS-1C 4.2 03:53:46 10° N 03:59:03 62° WNW 04:01:46 28° SW
MOZ.5/SAFIR/RUBIN 5/SL-8 4.0 03:59:53 30° SSW 04:01:52 48° W 04:06:30 10° NNW
ATLAS CENTAUR R/B 1.8 04:01:05 10° NW 04:05:25 69° NE 04:10:02 10° SE
Cosmos 2228 3.1 04:03:00 10° NNW 04:07:04 49° W 04:08:46 30° SSW
Resurs 1-4 Rocket 2.5 04:04:33 10° N 04:09:38 50° WNW 04:12:25 25° SW
Lacrosse 5 rocket 2.6 04:07:05 15° W 04:10:08 35° NNW 04:13:51 10° NE
Cosmos 292 Rocket 4.1 04:07:11 20° S 04:10:24 64° ESE 04:15:10 10° NNE
Cosmos 1980 Rocket 3.5 04:08:24 10° WNW 04:12:15 19° W 04:12:22 19° WSW
Cosmos 2360 Rocket 2.4 04:06:48 10° NNW 04:12:28 74° ENE 04:18:05 10° SE
Cosmos 1125 Rocket 3.8 04:08:34 10° NNW 04:13:54 73° ENE 04:19:11 10° SSE
DNEPR-1 R/B 4.3 04:13:18 20° S 04:15:56 46° ESE 04:20:28 10° NE
Cosmos 372 Rocket 4.0 04:11:11 10° NNW 04:16:21 80° ENE 04:21:28 10° SSE
Cosmos 2266 Rocket 3.9 04:11:29 10° NNW 04:17:35 79° W 04:23:44 10° S
Gbstr 26 Del rocket 4.4 04:10:38 10° W 04:18:24 73° N 04:24:54 10° E
Cosmos 1812 Rocket 4.0 04:14:32 10° N 04:19:00 63° ENE 04:23:25 10° SSE
Cosmos 1378 4.2 04:16:51 10° SSE 04:20:17 41° E 04:23:43 10° NNE
Cosmos 44 4.3 04:17:56 10° WNW 04:22:22 28° WSW 04:25:36 16° SSW
Cosmos 1758 3.2 04:19:30 10° NNW 04:23:28 73° W 04:27:15 11° S
ARIANE 5 R/B 2.8 04:20:38 10° N 04:25:45 56° WNW 04:29:18 20° SW
Cosmos 1602 Rocket 3.8 04:21:51 12° S 04:25:49 68° E 04:30:06 10° NNE
Gblst 52 Del rocket 4.5 04:20:25 10° WNW 04:26:02 53° SSW 04:32:22 10° SE
Timation 2 Rocket 3.9 04:22:05 21° SW 04:26:17 76° WNW 04:32:18 10° NNE
USA 267 4.1 04:21:24 10° E 04:27:42 52° NNE 04:33:59 10° WNW
deb Kosmos-1763 4.3 04:26:47 26° SW 04:28:42 56° WNW 04:32:25 10° NNE
Cosmos 2058 Rocket 3.8 04:24:58 10° NNW 04:29:00 34° W 04:31:17 21° SW
SL-16 R/B 2.7 04:26:15 10° NW 04:31:27 38° WSW 04:36:37 10° S
Cosmos 2082 Rocket 3.9 04:29:24 11° W 04:33:33 22° NW 04:37:54 10° N
Spot 4 Rocket 4.5 04:28:41 10° N 04:33:37 46° WNW 04:37:11 18° SW
Cosmos 1814 Rocket 4.3 04:31:17 20° SW 04:34:43 52° WNW 04:39:49 10° NNE
SJ 16-02 1.3 04:30:54 10° NNW 04:35:18 65° WSW 04:39:40 10° S
USA 238 DEB 3.7 04:30:17 18° SW 04:35:36 82° NW 04:42:40 10° NE
USA 238 3.7 04:30:22 18° SW 04:35:42 83° NW 04:42:47 10° NE
Cosmos 2333 Rocket 3.9 04:31:32 10° NNW 04:36:47 37° NE 04:42:00 10° ESE
Cosmos 1626 Rocket 3.4 04:33:04 13° SSW 04:36:50 84° WNW 04:41:11 10° N
UNKNOWN OBJECT B 2.8 04:33:28 10° N 04:37:17 61° WNW 04:39:59 18° SSW
Cosmos 2219 Rocket 3.7 04:32:03 10° NNW 04:37:21 40° NE 04:42:36 10° ESE
Cosmos 1470 2.7 04:36:24 10° NNW 04:40:24 75° W 04:44:22 10° S
Meteor 1-21 4.5 04:37:07 16° SSW 04:41:31 53° WNW 04:47:01 10° N
COSMOS 2428 3.5 04:36:30 10° NNW 04:42:09 58° ENE 04:47:43 10° SE
BREEZE-M R/B 3.2 04:40:53 20° SW 04:43:11 65° SSE 04:49:28 10° ENE
Cosmos 1707 3.1 04:41:28 10° S 04:45:12 62° E 04:48:58 10° NNE
Cosmos 2322 Rocket 2.9 04:40:26 10° NW 04:45:20 31° WSW 04:50:12 10° SSW
Helios 1A Rocket 3.6 04:45:40 10° N 04:49:34 39° WNW 04:52:39 15° SW
Meteor 1-16 Rocket 4.4 04:49:10 10° N 04:54:51 77° ENE 05:00:20 10° SSE
Cosmos 841 Rocket 4.0 04:52:57 14° SW 04:57:10 46° WNW 05:02:13 10° NNE
SL-16 R/B 4.1 04:55:22 12° WSW 04:58:01 16° W 05:01:37 10° NW
Cosmos 540 Rocket 3.5 04:55:55 11° SSW 05:00:51 68° WNW 05:06:02 10° NNE
CZ-2D R/B 4.2 04:58:33 10° N 05:02:13 35° WNW 05:05:44 11° SW
CZ-4B R/B 4.0 04:59:10 10° NNE 05:03:06 44° E 05:06:49 10° S
Cosmos 1833 4.3 04:59:15 10° SSW 05:05:03 88° ESE 05:10:52 10° NNE
Cosmos-2242 4.0 05:04:02 10° N 05:08:14 50° ENE 05:12:22 10° SSE
Meteor 1-28 Rocket 4.3 05:08:24 10° SSE 05:11:59 49° ENE 05:15:36 10° N
NOSS 3-2 (C) 3.6 05:06:37 10° SW 05:12:39 84° SE 05:19:26 10° NE
USA 161 3.0 05:10:54 10° SE 05:13:41 40° ENE 05:16:21 10° N
ATLAS 3B R/B 3.0 05:08:28 10° WSW 05:15:29 60° NW 05:22:15 10° NE
BREEZE-M DEB (TANK) 4.5 04:59:14 10° W 05:16:23 84° SSW 05:20:37 10° ESE
Aureole 2 Rocket 3.8 05:15:27 10° NW 05:18:26 22° W 05:21:15 10° SSW
CZ-2D R/B 4.0 05:18:27 10° NNW 05:21:36 16° NW 05:24:44 10° W
Cosmos 1953 3.6 05:19:55 10° NW 05:23:00 22° W 05:26:05 10° SW
ADEOS II 2.5 05:18:34 10° N 05:23:35 48° WNW 05:28:33 10° SW
ADEOS 4.5 05:19:24 10° N 05:24:01 32° WNW 05:28:35 10° SW
PSLV R/B 4.0 05:22:18 10° NNE 05:26:10 74° ESE 05:29:55 10° S
NOSS 3-2 (A) 3.7 05:21:26 10° SW 05:27:29 67° NW 05:34:19 10° NE
Cosmos 1825 Rocket 3.5 05:24:38 10° SSW 05:28:56 74° W 05:33:18 10° N
Cosmos 1400 Rocket 3.4 05:26:45 10° S 05:30:35 61° E 05:34:29 10° NNE
CRYOSAT 2 4.4 05:26:14 10° S 05:31:04 73° W 05:35:57 10° N
CENTAUR R/B 3.1 05:26:39 10° SSW 05:32:34 59° ESE 05:39:25 10° NE
USA 215 3.9 05:26:54 10° ENE 05:33:17 54° SE 05:39:39 10° SW
